Change the Weather History Date:

Wednesday, September 18, 2013

  Actual Average Record
Temperature  
Mean Temperature 68 °F 74 °F  
Max Temperature 78 °F 83 °F 95 °F (1958)
Min Temperature 57 °F 65 °F 52 °F (1986)
Degree Days  
Heating Degree Days 0 0  
Month to date heating degree days 0 0  
Since 1 July heating degree days 0 0  
Cooling Degree Days 3 9  
Month to date cooling degree days 218 191  
Year to date cooling degree days 1835 1720  
Growing Degree Days 18 (Base 50)    
Moisture  
Dew Point 55 °F    
Average Humidity 65    
Maximum Humidity 86    
Minimum Humidity 43    
Precipitation  
Precipitation 0.00 in 0.21 in 5.18 in (2003)
Month to date precipitation 2.03 3.67  
Year to date precipitation 31.17 40.47  
Snow  
Snow 0.00 in - - ()
Month to date snowfall 0.0  
Since 1 July snowfall 0.0  
Snow Depth 0.00 in    
Sea Level Pressure  
Sea Level Pressure 30.23 in    
Wind  
Wind Speed 7 mph (NE)    
Max Wind Speed 14 mph    
Max Gust Speed 20 mph    
Visibility 10 miles    
Events      
T = Trace of Precipitation, MM = Missing Value Source: NWS Daily Summary

Daily Weather History Graph

Daily Weather History Graph

Search for Another Location

Airport or City:

Trip Planner

Search our weather history database for the weather conditions in past years. The results will help you decide how hot, cold, wet, or windy it might be!

Date:

Astronomy

Sep. 18, 2013 Rise Set
Actual Time 6:53 AM EDT 7:10 PM EDT
Civil Twilight 6:28 AM EDT 7:35 PM EDT
Nautical Twilight 5:58 AM EDT 8:05 PM EDT
Astronomical Twilight 5:28 AM EDT 8:35 PM EDT
Moon 6:33 PM EDT (9/18) 5:54 AM EDT (9/18)
Length of Visible Light 13h 07m
Length of Day
12h 17m
Waxing Gibbous, 99% of the Moon is Illuminated
Sep 18
Waxing Gibbous
Sep 19
Full
Sep 26
Last Quarter
Oct 4
New
Oct 11
First Quarter

Hourly Weather History & Observations

Time (EDT) Temp. Dew Point Humidity Pressure Visibility Wind Dir Wind Speed Gust Speed Precip Events Conditions
12:54 AM 60.1 °F 53.1 °F 78% 30.28 in 10.0 mi North 6.9 mph - N/A   Clear
1:54 AM 60.1 °F 52.0 °F 75% 30.26 in 10.0 mi NNE 9.2 mph - N/A   Clear
2:54 AM 60.1 °F 52.0 °F 75% 30.25 in 10.0 mi NNE 10.4 mph - N/A   Mostly Cloudy
3:54 AM 59.0 °F 53.1 °F 81% 30.25 in 10.0 mi North 6.9 mph - N/A   Scattered Clouds
4:54 AM 57.9 °F 53.1 °F 84% 30.24 in 10.0 mi North 6.9 mph - N/A   Mostly Cloudy
5:54 AM 57.0 °F 53.1 °F 87% 30.25 in 10.0 mi North 6.9 mph - N/A   Partly Cloudy
6:54 AM 57.0 °F 53.1 °F 87% 30.26 in 10.0 mi NNE 5.8 mph - N/A   Partly Cloudy
7:54 AM 60.1 °F 54.0 °F 80% 30.26 in 10.0 mi NNE 8.1 mph - N/A   Clear
8:54 AM 63.0 °F 55.9 °F 78% 30.26 in 10.0 mi NNE 8.1 mph - N/A   Clear
9:54 AM 69.1 °F 57.9 °F 68% 30.27 in 10.0 mi NE 9.2 mph - N/A   Clear
10:54 AM 73.0 °F 57.0 °F 57% 30.27 in 10.0 mi NE 11.5 mph - N/A   Clear
11:54 AM 75.0 °F 57.9 °F 55% 30.26 in 10.0 mi NNE 8.1 mph - N/A   Clear
12:54 PM 75.9 °F 57.0 °F 52% 30.24 in 10.0 mi NNE 8.1 mph - N/A   Partly Cloudy
1:54 PM 78.1 °F 55.9 °F 46% 30.22 in 10.0 mi NNE 9.2 mph - N/A   Partly Cloudy
2:54 PM 77.0 °F 55.0 °F 47% 30.20 in 10.0 mi Variable 4.6 mph - N/A   Clear
3:54 PM 75.9 °F 55.0 °F 48% 30.18 in 10.0 mi ENE 8.1 mph - N/A   Clear
4:54 PM 77.0 °F 54.0 °F 45% 30.18 in 10.0 mi NNE 10.4 mph - N/A   Clear
5:54 PM 75.9 °F 53.1 °F 45% 30.18 in 10.0 mi ENE 8.1 mph - N/A   Scattered Clouds
6:54 PM 71.1 °F 57.9 °F 63% 30.19 in 10.0 mi East 6.9 mph - N/A   Clear
7:54 PM 69.1 °F 57.9 °F 68% 30.19 in 10.0 mi East 5.8 mph - N/A   Clear
8:54 PM 68.0 °F 57.0 °F 68% 30.20 in 10.0 mi East 5.8 mph - N/A   Clear
9:54 PM 66.0 °F 55.9 °F 70% 30.20 in 10.0 mi East 5.8 mph - N/A   Clear
10:54 PM 64.9 °F 57.0 °F 75% 30.20 in 10.0 mi ENE 5.8 mph - N/A   Clear
11:54 PM 64.0 °F 55.9 °F 75% 30.20 in 10.0 mi ENE 5.8 mph - N/A   Clear